Weather History for Bastrop, LA

Change the Weather History Date:

Tuesday, April 9, 2013

  Actual Average (KMLU) Record (KMLU)
Temperature  
Mean Temperature 78 °F 64 °F  
Max Temperature 88 °F 76 °F 90 °F (2011)
Min Temperature 68 °F 52 °F 37 °F (2003)
Degree Days  
Heating Degree Days 0 4  
Month to date heating degree days 40  
Since 1 July heating degree days 2184  
Cooling Degree Days 12 3  
Month to date cooling degree days 20  
Year to date cooling degree days 63  
Growing Degree Days 28 (Base 50)    
Moisture  
Dew Point 66 °F    
Average Humidity 69    
Maximum Humidity 88    
Minimum Humidity 49    
Precipitation  
Precipitation 0.00 in 0.15 in 0.95 in (1955)
Month to date precipitation 1.31  
Year to date precipitation 15.67  
Snow  
Snow 0.00 in - - ()
Month to date snowfall  
Since 1 July snowfall  
Snow Depth -    
Sea Level Pressure  
Sea Level Pressure 29.89 in    
Wind  
Wind Speed 4 mph (SSE)    
Max Wind Speed 16 mph    
Max Gust Speed 29 mph    
Visibility 10 miles    
Events      
T = Trace of Precipitation, MM = Missing Value Source: NWS Daily Summary

Daily Weather History Graph

Daily Weather History Graph

Search for Another Location

Airport:

Trip Planner

Search our weather history database for the weather conditions in past years. The results will help you decide how hot, cold, wet, or windy it might be!

Date:

Astronomy

Apr. 09, 2013 Rise Set
Actual Time 6:44 AM CDT 7:33 PM CDT
Civil Twilight 6:19 AM CDT 7:58 PM CDT
Nautical Twilight 5:50 AM CDT 8:28 PM CDT
Astronomical Twilight 5:20 AM CDT 8:58 PM CDT
Moon 6:06 AM CDT (4/9) 7:09 PM CDT (4/9)
Length of Visible Light 13h 38m
Length of Day
12h 48m
Waning Crescent, 1% of the Moon is Illuminated
Apr 9
Waning Crescent
Apr 10
New
Apr 18
First Quarter
Apr 25
Full
May 2
Last Quarter

Hourly Weather History & Observations

Time (CDT) Temp. Heat Index Dew Point Humidity Pressure Visibility Wind Dir Wind Speed Gust Speed Precip Events Conditions
12:15 AM 71.8 °F - 61.9 °F 71% 29.91 in 10.0 mi Calm Calm - N/A   Scattered Clouds
12:35 AM 71.4 °F - 62.2 °F 73% 29.91 in 10.0 mi SSE 3.5 mph - N/A   Clear
12:55 AM 71.4 °F - 62.1 °F 72% 29.91 in 10.0 mi Calm Calm - N/A   Clear
1:15 AM 71.1 °F - 62.1 °F 73% 29.90 in 10.0 mi SSE 5.8 mph - N/A   Clear
1:35 AM 70.7 °F - 62.1 °F 74% 29.90 in 10.0 mi SSE 3.5 mph - N/A   Clear
1:55 AM 70.0 °F - 62.2 °F 76% 29.89 in 10.0 mi Calm Calm - N/A   Clear
2:15 AM 69.3 °F - 62.6 °F 79% 29.88 in 10.0 mi Calm Calm - N/A   Clear
2:35 AM 68.9 °F - 62.8 °F 81% 29.87 in 10.0 mi Calm Calm - N/A   Clear
2:55 AM 69.1 °F - 63.0 °F 81% 29.87 in 10.0 mi SSE 3.5 mph - N/A   Clear
3:15 AM 69.3 °F - 63.0 °F 80% 29.87 in 10.0 mi Calm Calm - N/A   Clear
3:35 AM 69.6 °F - 63.5 °F 81% 29.87 in 10.0 mi Calm Calm - N/A   Clear
3:55 AM 69.3 °F - 63.5 °F 82% 29.87 in 10.0 mi SSE 3.5 mph - N/A   Clear
4:15 AM 69.4 °F - 64.2 °F 83% 29.87 in 10.0 mi SSE 6.9 mph - N/A   Scattered Clouds
4:35 AM 70.0 °F - 64.4 °F 82% 29.88 in 10.0 mi SSE 4.6 mph - N/A   Mostly Cloudy
4:55 AM 69.8 °F - 64.8 °F 84% 29.88 in 10.0 mi SSE 5.8 mph - N/A   Mostly Cloudy
5:15 AM 69.4 °F - 64.8 °F 85% 29.88 in 10.0 mi SSE 3.5 mph - N/A   Scattered Clouds
5:35 AM 69.3 °F - 64.9 °F 86% 29.88 in 10.0 mi Calm Calm - N/A   Mostly Cloudy
5:55 AM 69.4 °F - 65.3 °F 87% 29.90 in 10.0 mi Calm Calm - N/A   Overcast
6:15 AM 69.4 °F - 65.3 °F 87% 29.90 in 7.0 mi Calm Calm - N/A   Overcast
6:35 AM 68.9 °F - 65.1 °F 88% 29.91 in 7.0 mi Calm Calm - N/A   Mostly Cloudy
6:55 AM 68.9 °F - 65.3 °F 88% 29.91 in 7.0 mi Calm Calm - N/A   Overcast
7:15 AM 68.9 °F - 65.3 °F 88% 29.91 in 7.0 mi Calm Calm - N/A   Overcast
7:35 AM 69.4 °F - 65.3 °F 87% 29.92 in 7.0 mi Calm Calm - N/A   Overcast
7:55 AM 69.8 °F - 65.7 °F 87% 29.92 in 7.0 mi Calm Calm - N/A   Mostly Cloudy
8:15 AM 70.0 °F - 65.7 °F 86% 29.93 in 7.0 mi Calm Calm - N/A   Mostly Cloudy
8:35 AM 71.2 °F - 66.0 °F 84% 29.93 in 7.0 mi Calm Calm - N/A   Overcast
8:55 AM 72.5 °F - 66.2 °F 81% 29.94 in 7.0 mi SSE 3.5 mph - N/A   Overcast
9:15 AM 72.9 °F - 66.6 °F 81% 29.94 in 7.0 mi Calm Calm - N/A   Overcast
9:35 AM 73.8 °F - 66.7 °F 79% 29.94 in 7.0 mi Calm Calm - N/A   Overcast
9:55 AM 75.4 °F - 66.7 °F 74% 29.95 in 10.0 mi SSE 5.8 mph - N/A   Overcast
10:15 AM 75.6 °F - 66.7 °F 74% 29.95 in 10.0 mi SSE 8.1 mph - N/A   Overcast
10:35 AM 77.0 °F - 66.7 °F 70% 29.95 in 10.0 mi SSE 9.2 mph - N/A   Overcast
10:55 AM 77.5 °F - 67.1 °F 70% 29.95 in 10.0 mi SSE 8.1 mph 17.3 mph N/A   Overcast
11:15 AM 79.7 °F - 67.1 °F 65% 29.95 in 10.0 mi SSE 6.9 mph 16.1 mph N/A   Overcast
11:35 AM 79.3 °F - 67.3 °F 66% 29.95 in 10.0 mi SSE 10.4 mph 16.1 mph N/A   Overcast
11:55 AM 80.8 °F 83.2 °F 67.3 °F 63% 29.94 in 10.0 mi South 15.0 mph 20.7 mph N/A   Overcast
12:15 PM 81.0 °F 83.4 °F 67.1 °F 63% 29.94 in 10.0 mi SSE 11.5 mph 17.3 mph N/A   Overcast
12:35 PM 82.8 °F 85.3 °F 66.9 °F 59% 29.94 in 10.0 mi South 15.0 mph 24.2 mph N/A   Mostly Cloudy
12:55 PM 83.3 °F 85.9 °F 67.3 °F 58% 29.93 in 10.0 mi South 15.0 mph 25.3 mph N/A   Mostly Cloudy
1:15 PM 85.1 °F 87.7 °F 66.9 °F 54% 29.91 in 10.0 mi South 13.8 mph 23.0 mph N/A   Scattered Clouds
1:35 PM 84.7 °F 87.4 °F 67.1 °F 55% 29.90 in 10.0 mi South 16.1 mph 20.7 mph N/A   Mostly Cloudy
1:55 PM 84.4 °F 87.1 °F 67.3 °F 56% 29.89 in 10.0 mi South 12.7 mph 19.6 mph N/A   Overcast
2:15 PM 85.5 °F 88.2 °F 67.3 °F 54% 29.89 in 10.0 mi SE 12.7 mph 19.6 mph N/A   Mostly Cloudy
2:35 PM 85.6 °F 88.5 °F 67.3 °F 54% 29.88 in 10.0 mi SSE 8.1 mph 17.3 mph N/A   Mostly Cloudy
2:55 PM 86.5 °F 89.3 °F 67.1 °F 52% 29.87 in 10.0 mi SSE 9.2 mph 18.4 mph N/A   Overcast
3:15 PM 87.4 °F 90.1 °F 66.6 °F 50% 29.86 in 10.0 mi SSE 16.1 mph 24.2 mph N/A   Mostly Cloudy
3:35 PM 86.9 °F 88.9 °F 65.7 °F 49% 29.86 in 10.0 mi South 15.0 mph 28.8 mph N/A   Mostly Cloudy
3:55 PM 86.4 °F 88.7 °F 66.0 °F 51% 29.87 in 10.0 mi South 15.0 mph 23.0 mph N/A   Mostly Cloudy
4:15 PM 86.9 °F 89.3 °F 66.4 °F 50% 29.86 in 10.0 mi SSE 10.4 mph 19.6 mph N/A   Mostly Cloudy
4:35 PM 86.0 °F 88.5 °F 66.4 °F 52% 29.86 in 10.0 mi South 12.7 mph 18.4 mph N/A   Mostly Cloudy
4:55 PM 85.6 °F 87.9 °F 66.4 °F 52% 29.86 in 10.0 mi South 10.4 mph 18.4 mph N/A   Mostly Cloudy
5:15 PM 85.1 °F 87.9 °F 67.1 °F 55% 29.87 in 10.0 mi SSE 10.4 mph 17.3 mph N/A   Scattered Clouds
5:35 PM 84.9 °F 87.6 °F 67.1 °F 55% 29.85 in 10.0 mi SSE 8.1 mph - N/A   Scattered Clouds
5:55 PM 84.4 °F 87.1 °F 67.1 °F 56% 29.83 in 10.0 mi SE 8.1 mph - N/A   Clear
6:15 PM 83.8 °F 86.3 °F 66.7 °F 56% 29.82 in 10.0 mi SSE 8.1 mph 18.4 mph N/A   Clear
6:35 PM 83.5 °F 86.2 °F 67.1 °F 58% 29.82 in 10.0 mi SSE 8.1 mph 16.1 mph N/A   Clear
6:55 PM 83.3 °F 85.9 °F 66.9 °F 58% 29.85 in 10.0 mi South 9.2 mph 16.1 mph N/A   Clear
7:15 PM 82.8 °F 85.3 °F 66.9 °F 59% 29.83 in 10.0 mi SSE 9.2 mph - N/A   Clear
7:35 PM 82.4 °F 84.6 °F 66.4 °F 58% 29.85 in 10.0 mi South 9.2 mph - N/A   Clear
7:55 PM 82.2 °F 84.6 °F 66.4 °F 59% 29.84 in 10.0 mi SSE 6.9 mph - N/A   Clear
8:15 PM 81.7 °F 84.0 °F 66.7 °F 60% 29.87 in 10.0 mi Calm Calm - N/A   Clear
8:35 PM 80.8 °F 83.2 °F 67.1 °F 63% 29.88 in 10.0 mi Calm Calm - N/A   Clear
8:55 PM 80.4 °F 82.8 °F 67.1 °F 64% 29.88 in 10.0 mi Calm Calm - N/A   Clear
9:15 PM 80.4 °F 82.8 °F 67.1 °F 64% 29.89 in 10.0 mi Calm Calm - N/A   Mostly Cloudy
9:35 PM 79.9 °F - 67.3 °F 65% 29.90 in 10.0 mi Calm Calm - N/A   Overcast
9:55 PM 79.9 °F - 67.1 °F 65% 29.90 in 10.0 mi South 4.6 mph - N/A   Overcast
10:15 PM 79.7 °F - 67.3 °F 66% 29.88 in 10.0 mi SSE 6.9 mph - N/A   Mostly Cloudy
10:35 PM 79.0 °F - 67.3 °F 67% 29.90 in 10.0 mi South 6.9 mph - N/A   Scattered Clouds
10:55 PM 78.8 °F - 67.5 °F 68% 29.88 in 10.0 mi South 4.6 mph - N/A   Mostly Cloudy
11:15 PM 78.8 °F - 67.8 °F 69% 29.89 in 10.0 mi Calm Calm - N/A   Mostly Cloudy
11:35 PM 78.8 °F - 68.0 °F 69% 29.91 in 10.0 mi South 6.9 mph - N/A   Overcast
11:55 PM 79.0 °F - 68.5 °F 70% 29.90 in 10.0 mi South 8.1 mph - N/A   Overcast